NORTHERN QUEENS  -  Freeze Warning Freeze Warning        SOUTHERN QUEENS  -  Freeze Warning Freeze Warning      

Active alerts

Northern Queens
  Details for Northern Queens Freeze Warning
Southern Queens
  Details for Southern Queens Freeze Warning


WXM80 ListenWXM80 Stop

You find our weather info also at:

UK Metoffice

WeatherCloud

Weather Underground

Northeastern Weather Network

AWEKAS

Citizen Weather Observer Program (CWOP)

HAMweather, WeatherForYou, PWS Weather


Weather Underground History page Text

Daily Summary for January 28, 2018 Units:  English    Metric   Both
« Previous Day
Next Day »
Daily Weekly Monthly Yearly Custom
  High: Low: Average:
Temperature: 50.8 °F 40.3 °F 47.2 °F
Dew Point: 48.5 °F 38.7 °F 44.8 °F
Humidity: 96 % 80 % 92 %
Wind Speed: 8.8 mph 0.0 mph 1 mph
Wind Gust: 15.0 mph - -
Wind:- - SW
Pressure: 30.04 in 29.96 in -
Precipitation: 0.02 in    
Historical Graphs
 
 
Tabular Data for January 28, 2018
Time Temperature Dew Point Pressure Wind Wind Speed Wind Gust Humidity Rainfall Rate (Hourly)
00:04 49.6 °F 43.7 °F 29.97 in SSW 6.5 mph 11.5 mph 80 % 0.00 in
00:09 49.6 °F 43.7 °F 29.97 in South 7.2 mph 9.0 mph 80 % 0.00 in
00:14 49.6 °F 43.7 °F 29.97 in SSW 5.5 mph 9.2 mph 80 % 0.00 in
00:20 49.7 °F 43.8 °F 29.97 in South 8.8 mph 15.0 mph 80 % 0.00 in
00:25 49.8 °F 43.9 °F 29.97 in West 4.9 mph 11.0 mph 80 % 0.00 in
00:30 49.9 °F 44.0 °F 29.97 in SSW 5.0 mph 6.9 mph 80 % 0.00 in
00:35 49.9 °F 44.0 °F 29.97 in SW 4.7 mph 10.4 mph 80 % 0.00 in
00:40 50.0 °F 44.1 °F 29.96 in SSW 4.7 mph 9.2 mph 80 % 0.00 in
00:45 50.1 °F 44.2 °F 29.96 in SW 6.1 mph 12.7 mph 80 % 0.00 in
00:50 50.1 °F 44.2 °F 29.96 in SW 4.9 mph 9.2 mph 80 % 0.00 in
00:55 50.2 °F 44.3 °F 29.96 in SSE 8.2 mph 15.0 mph 80 % 0.00 in
01:00 50.3 °F 44.4 °F 29.96 in SW 6.3 mph 12.0 mph 80 % 0.00 in
01:05 50.4 °F 44.5 °F 29.97 in SW 6.9 mph 13.8 mph 80 % 0.00 in
01:10 50.5 °F 44.6 °F 29.97 in SSW 6.0 mph 9.0 mph 80 % 0.00 in
01:15 50.6 °F 44.7 °F 29.97 in SW 5.3 mph 8.1 mph 80 % 0.00 in
01:20 50.7 °F 44.8 °F 29.97 in WSW 5.4 mph 9.2 mph 80 % 0.00 in
01:25 50.8 °F 44.9 °F 29.97 in SSW 4.2 mph 7.0 mph 80 % 0.00 in
01:30 50.8 °F 44.9 °F 29.97 in SSW 3.6 mph 8.1 mph 80 % 0.00 in
01:35 50.8 °F 44.9 °F 29.97 in SSW 5.1 mph 8.0 mph 80 % 0.00 in
01:40 50.8 °F 45.2 °F 29.97 in WSW 2.9 mph 7.0 mph 81 % 0.00 in
01:45 50.8 °F 45.2 °F 29.97 in SSW 4.2 mph 7.0 mph 81 % 0.00 in
01:50 50.7 °F 45.1 °F 29.97 in South 3.4 mph 8.1 mph 81 % 0.00 in
01:56 50.6 °F 45.3 °F 29.97 in WSW 4.2 mph 6.0 mph 82 % 0.00 in
02:01 50.5 °F 45.5 °F 29.96 in SW 1.3 mph 6.0 mph 83 % 0.00 in
02:06 50.4 °F 45.4 °F 29.96 in SSW 2.4 mph 5.8 mph 83 % 0.00 in
02:11 50.3 °F 45.6 °F 29.96 in SW 1.9 mph 3.5 mph 84 % 0.00 in
02:16 50.1 °F 45.5 °F 29.97 in SW 2.2 mph 3.5 mph 84 % 0.00 in
02:21 50.0 °F 45.4 °F 29.96 in SW 2.6 mph 4.6 mph 84 % 0.00 in
02:26 49.8 °F 45.2 °F 29.96 in SW 3.7 mph 6.9 mph 84 % 0.00 in
02:31 49.7 °F 45.1 °F 29.96 in SSW 2.3 mph 3.5 mph 84 % 0.00 in
02:36 49.5 °F 45.2 °F 29.97 in SW 0.4 mph 2.0 mph 85 % 0.00 in
02:41 49.4 °F 45.1 °F 29.97 in SW 2.1 mph 3.5 mph 85 % 0.00 in
02:46 49.2 °F 44.9 °F 29.97 in WSW 1.0 mph 3.5 mph 85 % 0.00 in
02:51 49.1 °F 44.8 °F 29.97 in SSW 1.9 mph 5.0 mph 85 % 0.00 in
02:56 48.9 °F 44.6 °F 29.97 in SW 2.5 mph 4.0 mph 85 % 0.00 in
03:01 48.7 °F 44.7 °F 29.97 in SSW 1.2 mph 3.5 mph 86 % 0.00 in
03:06 48.6 °F 44.6 °F 29.97 in SSW 1.9 mph 6.9 mph 86 % 0.00 in
03:11 48.4 °F 44.4 °F 29.97 in SW 1.6 mph 3.5 mph 86 % 0.00 in
03:16 48.3 °F 44.3 °F 29.97 in SW 1.2 mph 3.5 mph 86 % 0.00 in
03:21 48.1 °F 44.4 °F 29.97 in SW 1.0 mph 3.5 mph 87 % 0.00 in
03:26 47.9 °F 44.5 °F 29.97 in SSW 1.5 mph 4.6 mph 88 % 0.00 in
03:32 47.8 °F 44.4 °F 29.97 in SSW 3.0 mph 6.0 mph 88 % 0.00 in
03:37 47.7 °F 44.6 °F 29.97 in SSW 2.2 mph 4.6 mph 89 % 0.00 in
03:42 47.6 °F 44.5 °F 29.97 in SW 0.5 mph 3.5 mph 89 % 0.00 in
03:47 47.6 °F 44.8 °F 29.96 in SW 1.5 mph 5.8 mph 90 % 0.00 in
03:52 47.5 °F 44.7 °F 29.97 in SW 1.8 mph 3.5 mph 90 % 0.00 in
03:57 47.5 °F 44.7 °F 29.97 in WSW 2.8 mph 6.0 mph 90 % 0.00 in
04:02 47.5 °F 45.0 °F 29.97 in WSW 4.7 mph 6.9 mph 91 % 0.00 in
04:07 47.5 °F 45.3 °F 29.97 in SW 2.6 mph 9.2 mph 92 % 0.00 in
04:12 47.6 °F 45.4 °F 29.97 in SW 2.7 mph 3.5 mph 92 % 0.00 in
04:17 47.6 °F 45.4 °F 29.97 in SSW 1.9 mph 3.5 mph 92 % 0.00 in
04:22 47.5 °F 45.3 °F 29.97 in SW 2.0 mph 3.5 mph 92 % 0.00 in
04:27 47.5 °F 45.3 °F 29.97 in SSW 2.5 mph 4.0 mph 92 % 0.00 in
04:32 47.5 °F 45.6 °F 29.97 in WSW 0.1 mph 3.5 mph 93 % 0.00 in
04:37 47.6 °F 45.7 °F 29.98 in SW 1.9 mph 3.5 mph 93 % 0.00 in
04:42 47.5 °F 45.6 °F 29.97 in SSW 2.9 mph 4.0 mph 93 % 0.00 in
04:47 47.6 °F 45.7 °F 29.98 in SW 2.2 mph 3.5 mph 93 % 0.00 in
04:52 47.6 °F 45.7 °F 29.98 in SSW 1.8 mph 3.0 mph 93 % 0.00 in
04:57 47.6 °F 45.7 °F 29.98 in WSW 1.9 mph 3.5 mph 93 % 0.00 in
05:02 47.7 °F 46.1 °F 29.98 in SSW 0.7 mph 4.6 mph 94 % 0.00 in
05:08 47.7 °F 46.1 °F 29.98 in SSW 0.8 mph 3.5 mph 94 % 0.00 in
05:13 47.7 °F 46.1 °F 29.98 in SSW 1.3 mph 4.0 mph 94 % 0.00 in
05:18 47.8 °F 46.2 °F 29.98 in SW 2.4 mph 8.1 mph 94 % 0.00 in
05:23 47.9 °F 46.3 °F 29.98 in SW 2.9 mph 3.5 mph 94 % 0.00 in
05:28 48.0 °F 46.4 °F 29.98 in SW 3.6 mph 5.8 mph 94 % 0.00 in
05:33 48.1 °F 46.7 °F 29.98 in SW 4.0 mph 7.0 mph 95 % 0.00 in
05:38 48.1 °F 46.7 °F 29.98 in WSW 1.9 mph 3.5 mph 95 % 0.00 in
05:43 48.2 °F 46.8 °F 29.98 in SW 2.8 mph 4.6 mph 95 % 0.00 in
05:48 48.2 °F 46.8 °F 29.98 in SW 0.9 mph 3.5 mph 95 % 0.00 in
05:53 48.2 °F 46.8 °F 29.98 in WSW 1.8 mph 3.5 mph 95 % 0.00 in
05:58 48.3 °F 46.9 °F 29.98 in West 1.3 mph 4.6 mph 95 % 0.00 in
06:03 48.3 °F 46.9 °F 29.98 in SW 0.6 mph 2.3 mph 95 % 0.00 in
06:08 48.3 °F 46.9 °F 29.98 in SW 0.9 mph 1.2 mph 95 % 0.00 in
06:13 48.3 °F 46.9 °F 29.98 in SW 0.9 mph 3.5 mph 95 % 0.00 in
06:18 48.3 °F 46.9 °F 29.98 in SSW 1.3 mph 3.5 mph 95 % 0.00 in
06:23 48.3 °F 46.9 °F 29.99 in SW 1.2 mph 2.3 mph 95 % 0.00 in
06:28 48.3 °F 46.9 °F 29.99 in SW 1.7 mph 3.5 mph 95 % 0.00 in
06:34 48.3 °F 46.9 °F 29.99 in WSW 2.7 mph 4.0 mph 95 % 0.00 in
06:39 48.3 °F 46.9 °F 30.00 in SW 0.7 mph 2.3 mph 95 % 0.00 in
06:44 48.2 °F 46.8 °F 30.00 in WSW 0.8 mph 2.3 mph 95 % 0.00 in
06:49 48.3 °F 46.9 °F 30.00 in Calm   2.3 mph 95 % 0.00 in
06:54 48.2 °F 46.8 °F 30.00 in Calm     95 % 0.00 in
06:59 48.2 °F 46.8 °F 30.00 in SW 0.3 mph 1.2 mph 95 % 0.00 in
07:04 48.2 °F 46.8 °F 30.00 in SW 0.1 mph 2.3 mph 95 % 0.00 in
07:09 48.2 °F 46.8 °F 30.00 in Calm     95 % 0.00 in
07:14 48.2 °F 46.8 °F 30.01 in WSW 0.8 mph 2.3 mph 95 % 0.00 in
07:19 48.2 °F 46.8 °F 30.01 in SW 1.4 mph 3.5 mph 95 % 0.00 in
07:24 48.2 °F 46.8 °F 30.01 in SW 0.1 mph 2.3 mph 95 % 0.00 in
07:29 48.2 °F 46.8 °F 30.00 in SW 0.2 mph 2.0 mph 95 % 0.00 in
07:34 48.2 °F 46.8 °F 30.01 in SW 0.3 mph 2.3 mph 95 % 0.01 in
07:39 48.2 °F 46.8 °F 30.01 in SW 0.4 mph 2.3 mph 95 % 0.01 in
07:44 48.2 °F 46.8 °F 30.01 in Calm   1.2 mph 95 % 0.01 in
07:49 48.2 °F 46.8 °F 30.01 in WSW 0.4 mph 2.3 mph 95 % 0.01 in
07:54 48.2 °F 46.8 °F 30.01 in Calm   1.0 mph 95 % 0.01 in
08:00 48.2 °F 46.8 °F 30.02 in WSW 2.1 mph 3.0 mph 95 % 0.01 in
08:05 48.2 °F 46.8 °F 30.02 in WSW 1.7 mph 3.5 mph 95 % 0.01 in
08:10 48.3 °F 46.9 °F 30.02 in WSW 0.3 mph 2.3 mph 95 % 0.01 in
08:15 48.3 °F 46.9 °F 30.02 in WSW 0.3 mph 1.2 mph 95 % 0.01 in
08:20 48.3 °F 46.9 °F 30.02 in WSW 0.1 mph 1.2 mph 95 % 0.01 in
08:25 48.3 °F 46.9 °F 30.02 in Calm   2.3 mph 95 % 0.01 in
08:30 48.3 °F 46.9 °F 30.02 in WSW 0.3 mph 1.2 mph 95 % 0.01 in
08:35 48.3 °F 46.9 °F 30.02 in WSW 0.9 mph 1.2 mph 95 % 0.00 in
08:40 48.3 °F 46.9 °F 30.02 in Calm     95 % 0.00 in
08:45 48.3 °F 46.9 °F 30.02 in Calm     95 % 0.00 in
08:50 48.3 °F 46.9 °F 30.02 in WSW 0.1 mph 1.2 mph 95 % 0.00 in
08:55 48.3 °F 46.9 °F 30.02 in WSW 0.9 mph 2.3 mph 95 % 0.00 in
09:00 48.3 °F 46.9 °F 30.02 in WSW 0.1 mph 1.2 mph 95 % 0.00 in
09:05 48.3 °F 46.9 °F 30.02 in SW 1.7 mph 3.5 mph 95 % 0.00 in
09:10 48.4 °F 47.3 °F 30.02 in Calm   1.2 mph 96 % 0.00 in
09:15 48.4 °F 47.3 °F 30.02 in SW 0.9 mph 3.5 mph 96 % 0.00 in
09:20 48.5 °F 47.4 °F 30.02 in Calm     96 % 0.00 in
09:25 48.5 °F 47.4 °F 30.02 in SW 0.1 mph 3.5 mph 96 % 0.00 in
09:31 48.6 °F 47.5 °F 30.02 in Calm   1.0 mph 96 % 0.00 in
09:36 48.6 °F 47.5 °F 30.02 in Calm   1.0 mph 96 % 0.00 in
09:41 48.7 °F 47.6 °F 30.02 in Calm   2.0 mph 96 % 0.00 in
09:46 48.7 °F 47.6 °F 30.02 in SW 1.0 mph 2.0 mph 96 % 0.00 in
09:51 48.8 °F 47.7 °F 30.02 in Calm   2.3 mph 96 % 0.00 in
09:56 48.9 °F 47.8 °F 30.02 in Calm   3.0 mph 96 % 0.00 in
10:01 49.0 °F 47.9 °F 30.03 in Calm   2.3 mph 96 % 0.00 in
10:06 49.1 °F 48.0 °F 30.02 in SW 0.3 mph 2.3 mph 96 % 0.00 in
10:11 49.2 °F 48.1 °F 30.02 in SW 2.6 mph 3.5 mph 96 % 0.00 in
10:16 49.3 °F 48.2 °F 30.02 in Calm   2.3 mph 96 % 0.00 in
10:21 49.4 °F 48.3 °F 30.02 in WSW 0.7 mph 2.3 mph 96 % 0.00 in
10:26 49.4 °F 48.3 °F 30.03 in WSW 0.9 mph 3.5 mph 96 % 0.00 in
10:31 49.5 °F 48.4 °F 30.03 in WSW 0.3 mph 2.3 mph 96 % 0.00 in
10:36 49.5 °F 48.4 °F 30.02 in SW 1.8 mph 4.0 mph 96 % 0.00 in
10:41 49.5 °F 48.4 °F 30.03 in WSW 0.5 mph 3.5 mph 96 % 0.00 in
10:46 49.5 °F 48.4 °F 30.03 in WSW 1.7 mph 4.6 mph 96 % 0.00 in
10:51 49.6 °F 48.5 °F 30.03 in WSW 1.3 mph 2.3 mph 96 % 0.00 in
10:56 49.5 °F 48.4 °F 30.03 in WSW 2.9 mph 5.8 mph 96 % 0.00 in
11:01 49.5 °F 48.4 °F 30.03 in SW 0.5 mph 3.5 mph 96 % 0.00 in
11:06 49.5 °F 48.4 °F 30.03 in WSW 0.8 mph 2.3 mph 96 % 0.00 in
11:11 49.5 °F 48.4 °F 30.04 in WSW 0.7 mph 3.5 mph 96 % 0.00 in
11:16 49.5 °F 48.4 °F 30.03 in WSW 1.0 mph 2.3 mph 96 % 0.00 in
11:22 49.4 °F 48.3 °F 30.02 in SSW 1.4 mph 3.5 mph 96 % 0.00 in
11:27 49.4 °F 48.3 °F 30.02 in SSW 0.1 mph 2.3 mph 96 % 0.00 in
11:32 49.4 °F 48.3 °F 30.02 in North 0.3 mph 2.0 mph 96 % 0.00 in
11:37 49.4 °F 48.3 °F 30.01 in Calm   1.2 mph 96 % 0.00 in
11:42 49.4 °F 48.3 °F 30.01 in Calm     96 % 0.00 in
11:47 49.4 °F 48.3 °F 30.01 in SSW 0.8 mph 2.3 mph 96 % 0.00 in
11:52 49.4 °F 48.3 °F 30.01 in Calm     96 % 0.00 in
11:57 49.4 °F 48.3 °F 30.01 in Calm     96 % 0.00 in
12:02 49.4 °F 48.3 °F 30.00 in Calm   2.3 mph 96 % 0.00 in
12:07 49.4 °F 48.3 °F 30.00 in WSW 0.1 mph 1.2 mph 96 % 0.00 in
12:12 49.3 °F 48.2 °F 30.00 in WSW 0.2 mph 1.2 mph 96 % 0.00 in
12:17 49.3 °F 48.2 °F 30.00 in Calm     96 % 0.00 in
12:22 49.2 °F 48.1 °F 30.00 in WSW 1.4 mph 3.5 mph 96 % 0.00 in
12:27 49.2 °F 48.1 °F 29.99 in WSW 0.3 mph 2.3 mph 96 % 0.00 in
12:32 49.1 °F 48.0 °F 29.99 in WSW 1.2 mph 2.0 mph 96 % 0.00 in
12:37 49.1 °F 48.0 °F 29.99 in WSW 1.7 mph 3.5 mph 96 % 0.00 in
12:43 49.1 °F 48.0 °F 29.99 in Calm     96 % 0.00 in
12:48 49.0 °F 47.9 °F 29.98 in WSW 0.1 mph 1.2 mph 96 % 0.00 in
12:53 48.9 °F 47.8 °F 29.98 in Calm     96 % 0.00 in
12:58 49.0 °F 47.9 °F 29.98 in WSW 0.8 mph 2.3 mph 96 % 0.00 in
13:03 48.9 °F 47.8 °F 29.98 in WSW 0.8 mph 2.3 mph 96 % 0.00 in
13:08 48.9 °F 47.8 °F 29.98 in WSW 0.4 mph 3.5 mph 96 % 0.00 in
13:13 48.8 °F 47.4 °F 29.98 in WSW 0.7 mph 2.3 mph 95 % 0.00 in
13:18 48.8 °F 47.4 °F 29.98 in WSW 0.2 mph 2.3 mph 95 % 0.00 in
13:23 48.8 °F 47.4 °F 29.97 in WSW 0.6 mph 3.0 mph 95 % 0.00 in
13:28 48.8 °F 47.4 °F 29.97 in WSW 0.8 mph 2.0 mph 95 % 0.00 in
13:33 48.8 °F 47.4 °F 29.97 in NW 1.2 mph 3.5 mph 95 % 0.00 in
13:38 48.8 °F 47.4 °F 29.97 in NW 0.6 mph 2.3 mph 95 % 0.00 in
13:43 48.8 °F 47.4 °F 29.97 in WNW 1.9 mph 3.5 mph 95 % 0.00 in
13:48 48.8 °F 47.4 °F 29.98 in West 1.8 mph 3.5 mph 95 % 0.00 in
13:53 48.8 °F 47.4 °F 29.97 in Calm   1.2 mph 95 % 0.00 in
13:58 48.9 °F 47.5 °F 29.97 in WSW 0.7 mph 3.5 mph 95 % 0.00 in
14:03 48.9 °F 47.5 °F 29.97 in WSW 2.0 mph 2.3 mph 95 % 0.00 in
14:08 49.0 °F 47.6 °F 29.97 in WSW 2.6 mph 3.5 mph 95 % 0.00 in
14:13 49.1 °F 47.4 °F 29.97 in WSW 1.6 mph 2.3 mph 94 % 0.00 in
14:18 49.2 °F 47.5 °F 29.97 in WSW 0.3 mph 2.3 mph 94 % 0.00 in
14:24 49.2 °F 47.5 °F 29.98 in WSW 0.1 mph 1.0 mph 94 % 0.00 in
14:29 49.3 °F 47.6 °F 29.98 in WSW 0.2 mph 2.3 mph 94 % 0.00 in
14:34 49.3 °F 47.4 °F 29.97 in WSW 0.2 mph 1.2 mph 93 % 0.01 in
14:39 49.4 °F 47.2 °F 29.97 in Calm   1.0 mph 92 % 0.01 in
14:44 49.4 °F 47.2 °F 29.97 in WSW 0.1 mph 3.5 mph 92 % 0.01 in
14:49 49.4 °F 46.9 °F 29.97 in Calm   1.2 mph 91 % 0.01 in
14:54 49.4 °F 46.6 °F 29.97 in Calm   1.0 mph 90 % 0.01 in
14:59 49.4 °F 46.6 °F 29.96 in WSW 0.4 mph 2.3 mph 90 % 0.01 in
15:04 49.3 °F 45.9 °F 29.97 in Calm     88 % 0.01 in
15:09 49.3 °F 45.9 °F 29.97 in WSW 1.4 mph 3.5 mph 88 % 0.01 in
15:14 49.3 °F 45.9 °F 29.97 in WSW 0.4 mph 2.0 mph 88 % 0.01 in
15:19 49.2 °F 45.8 °F 29.97 in Calm     88 % 0.01 in
15:24 49.2 °F 45.8 °F 29.96 in Calm     88 % 0.01 in
15:29 49.1 °F 45.7 °F 29.97 in Calm     88 % 0.01 in
15:34 49.1 °F 45.4 °F 29.97 in Calm     87 % 0.00 in
15:39 49.0 °F 45.3 °F 29.97 in Calm     87 % 0.00 in
15:45 49.0 °F 45.3 °F 29.97 in Calm     87 % 0.00 in
15:50 48.9 °F 45.2 °F 29.97 in Calm     87 % 0.00 in
15:55 48.8 °F 45.4 °F 29.97 in Calm     88 % 0.00 in
16:00 48.7 °F 45.3 °F 29.97 in Calm   1.0 mph 88 % 0.00 in
16:05 48.7 °F 45.3 °F 29.97 in Calm     88 % 0.00 in
16:10 48.6 °F 45.2 °F 29.97 in Calm     88 % 0.00 in
16:15 48.6 °F 45.2 °F 29.97 in Calm   1.2 mph 88 % 0.00 in
16:20 48.5 °F 45.1 °F 29.97 in Calm     88 % 0.00 in
16:25 48.4 °F 45.3 °F 29.97 in Calm     89 % 0.00 in
16:30 48.3 °F 45.2 °F 29.97 in Calm     89 % 0.00 in
16:35 48.2 °F 45.1 °F 29.98 in Calm     89 % 0.00 in
16:41 48.1 °F 45.0 °F 29.98 in Calm   2.0 mph 89 % 0.00 in
16:46 48.0 °F 44.9 °F 29.98 in Calm   2.0 mph 89 % 0.00 in
16:50 47.9 °F 44.8 °F 29.98 in Calm     89 % 0.00 in
16:56 47.8 °F 44.7 °F 29.98 in Calm     89 % 0.00 in
17:01 47.7 °F 44.6 °F 29.98 in Calm     89 % 0.00 in
17:06 47.6 °F 44.5 °F 29.98 in Calm     89 % 0.00 in
17:11 47.5 °F 44.7 °F 29.98 in Calm     90 % 0.00 in
17:16 47.4 °F 44.6 °F 29.98 in Calm     90 % 0.00 in
17:21 47.2 °F 44.1 °F 29.98 in Calm     89 % 0.00 in
17:26 47.1 °F 44.0 °F 29.98 in Calm     89 % 0.00 in
17:31 47.0 °F 44.2 °F 29.98 in Calm     90 % 0.00 in
17:36 46.8 °F 44.0 °F 29.98 in Calm     90 % 0.00 in
17:41 46.6 °F 43.8 °F 29.98 in Calm     90 % 0.00 in
17:46 46.5 °F 43.7 °F 29.98 in Calm     90 % 0.00 in
17:51 46.3 °F 43.5 °F 29.98 in Calm     90 % 0.00 in
17:56 46.2 °F 43.4 °F 29.98 in Calm     90 % 0.00 in
18:01 46.1 °F 43.3 °F 29.98 in Calm     90 % 0.00 in
18:06 46.0 °F 43.2 °F 29.99 in Calm     90 % 0.00 in
18:11 45.8 °F 43.0 °F 29.99 in Calm     90 % 0.00 in
18:16 45.7 °F 42.9 °F 29.99 in Calm     90 % 0.00 in
18:22 45.7 °F 42.9 °F 30.00 in Calm     90 % 0.00 in
18:27 45.5 °F 42.7 °F 30.00 in Calm     90 % 0.00 in
18:32 45.4 °F 42.9 °F 29.99 in Calm     91 % 0.00 in
18:37 45.3 °F 42.8 °F 30.00 in Calm     91 % 0.00 in
18:42 45.2 °F 42.7 °F 30.00 in Calm     91 % 0.00 in
18:47 45.0 °F 42.5 °F 30.00 in Calm     91 % 0.00 in
18:52 44.9 °F 42.4 °F 30.00 in Calm     91 % 0.00 in
18:57 44.7 °F 42.2 °F 30.00 in Calm     91 % 0.00 in
19:02 44.5 °F 42.0 °F 30.00 in Calm     91 % 0.00 in
19:07 44.2 °F 41.7 °F 29.99 in Calm     91 % 0.00 in
19:12 44.1 °F 41.6 °F 29.99 in Calm     91 % 0.00 in
19:17 43.9 °F 41.4 °F 30.00 in Calm     91 % 0.00 in
19:22 43.7 °F 41.2 °F 30.00 in Calm     91 % 0.00 in
19:27 43.6 °F 41.1 °F 30.00 in Calm     91 % 0.00 in
19:32 43.4 °F 40.9 °F 30.00 in Calm     91 % 0.00 in
19:37 43.3 °F 40.8 °F 29.99 in Calm     91 % 0.00 in
19:42 43.1 °F 40.7 °F 30.00 in Calm     91 % 0.00 in
19:47 43.0 °F 40.6 °F 30.00 in Calm     91 % 0.00 in
19:52 42.8 °F 40.4 °F 29.99 in Calm     91 % 0.00 in
19:58 42.7 °F 40.3 °F 30.00 in Calm     91 % 0.00 in
20:03 42.6 °F 40.2 °F 30.00 in Calm     91 % 0.00 in
20:08 42.5 °F 40.3 °F 30.00 in Calm     92 % 0.00 in
20:13 42.4 °F 40.0 °F 30.00 in Calm     91 % 0.00 in
20:18 42.3 °F 40.1 °F 30.00 in Calm     92 % 0.00 in
20:23 42.2 °F 40.0 °F 30.00 in Calm     92 % 0.00 in
20:28 42.2 °F 40.0 °F 30.00 in Calm     92 % 0.00 in
20:33 42.1 °F 39.9 °F 30.00 in Calm     92 % 0.00 in
20:38 42.0 °F 39.8 °F 30.00 in Calm     92 % 0.00 in
20:43 41.9 °F 39.7 °F 30.00 in Calm     92 % 0.00 in
20:48 41.9 °F 39.7 °F 29.99 in Calm     92 % 0.00 in
20:53 41.8 °F 39.6 °F 29.99 in Calm     92 % 0.00 in
20:58 41.7 °F 39.5 °F 30.00 in Calm     92 % 0.00 in
21:03 41.6 °F 39.7 °F 30.00 in Calm     93 % 0.00 in
21:08 41.5 °F 39.6 °F 30.00 in Calm     93 % 0.00 in
21:13 41.5 °F 39.6 °F 30.00 in Calm     93 % 0.00 in
21:18 41.4 °F 39.5 °F 30.00 in Calm     93 % 0.00 in
21:23 41.4 °F 39.5 °F 30.00 in Calm     93 % 0.00 in
21:28 41.4 °F 39.5 °F 30.01 in Calm     93 % 0.00 in
21:34 41.4 °F 39.8 °F 30.00 in Calm     94 % 0.00 in
21:39 41.4 °F 39.8 °F 30.00 in Calm     94 % 0.00 in
21:44 41.4 °F 39.8 °F 30.00 in Calm     94 % 0.00 in
21:49 41.4 °F 39.8 °F 30.01 in Calm     94 % 0.00 in
21:54 41.4 °F 39.8 °F 30.00 in Calm     94 % 0.00 in
21:59 41.6 °F 40.0 °F 30.00 in Calm     94 % 0.00 in
22:04 41.6 °F 40.0 °F 30.00 in Calm     94 % 0.00 in
22:09 41.6 °F 40.0 °F 30.00 in Calm     94 % 0.00 in
22:14 41.5 °F 39.9 °F 30.00 in Calm     94 % 0.00 in
22:19 41.5 °F 39.9 °F 30.00 in Calm     94 % 0.00 in
22:24 41.5 °F 39.9 °F 30.00 in Calm     94 % 0.00 in
22:29 41.5 °F 40.2 °F 30.01 in Calm     95 % 0.00 in
22:34 41.4 °F 40.1 °F 30.01 in Calm     95 % 0.00 in
22:39 41.4 °F 40.1 °F 30.01 in Calm     95 % 0.00 in
22:44 41.3 °F 40.0 °F 30.01 in Calm     95 % 0.00 in
22:49 41.3 °F 40.0 °F 30.00 in Calm     95 % 0.00 in
22:54 41.2 °F 39.9 °F 30.00 in Calm     95 % 0.00 in
22:59 41.2 °F 39.9 °F 30.00 in Calm     95 % 0.00 in
23:04 41.1 °F 39.5 °F 30.00 in Calm     94 % 0.00 in
23:10 41.0 °F 39.4 °F 30.00 in Calm     94 % 0.00 in
23:15 40.9 °F 39.3 °F 30.00 in Calm     94 % 0.00 in
23:20 40.9 °F 39.3 °F 30.00 in Calm     94 % 0.00 in
23:25 40.8 °F 39.2 °F 30.00 in Calm     94 % 0.00 in
23:30 40.7 °F 39.1 °F 30.00 in Calm     94 % 0.00 in
23:35 40.6 °F 39.0 °F 30.00 in Calm     94 % 0.00 in
23:40 40.6 °F 39.0 °F 30.00 in Calm     94 % 0.00 in
23:45 40.5 °F 38.9 °F 30.00 in WSW 0.3 mph 1.2 mph 94 % 0.00 in
23:50 40.4 °F 38.8 °F 30.00 in Calm     94 % 0.00 in
23:55 40.3 °F 38.7 °F 30.00 in WSW 0.2 mph 1.2 mph 94 % 0.00 in
Crab Meadow Weather
Compliments of Weather Underground - 3 mb

Script developed by  Jim McMurry - jmcmurry@mwt.net Adapted for the template by  Wim van der Kuil - Leuven-Template.eu

Hurricanes: A large hurricane stirs up more than a million cubic miles of the atmosphere every second. Hurricane winds can kick up 50 foot or higher waves in the open ocean.